Lille, France

6:05 AM CEST on June 27, 2017 (GMT +0200)
Lesquin

Weather History for LFQQ - April, 2014

Change the Weather History Date:

Saturday, April 5, 2014

  Actual Average Record
Temperature  
Mean Temperature 54 °F -  
Max Temperature 65 °F 57 °F 65 °F (2014)
Min Temperature 44 °F 42 °F 35 °F (2006)
Degree Days  
Heating Degree Days 10    
Growing Degree Days 4 (Base 50)    
Moisture  
Dew Point 42 °F    
Average Humidity 64    
Maximum Humidity 100    
Minimum Humidity 27    
Precipitation  
Precipitation 0.00 in - - ()
Sea Level Pressure  
Sea Level Pressure 29.99 in    
Wind  
Wind Speed 4 mph ()    
Max Wind Speed 12 mph    
Max Gust Speed -    
Visibility 6.0 miles    
Events      
Averages and records for this station are not official NWS values.
T = Trace of Precipitation, MM = Missing Value Source: Averaged Metar Reports

Daily Weather History Graph

Daily Weather History Graph

Search for Another Location

Airport or City:

Trip Planner

Search our weather history database for the weather conditions in past years. The results will help you decide how hot, cold, wet, or windy it might be!

Date:

Astronomy

Apr. 05, 2014 Rise Set
Actual Time 7:15 AM CEST 8:26 PM CEST
Civil Twilight 6:41 AM CEST 8:59 PM CEST
Nautical Twilight 6:01 AM CEST 9:40 PM CEST
Astronomical Twilight 5:17 AM CEST 10:24 PM CEST
Moon 10:47 AM CEST (4/5) 1:45 AM CEST (4/5)
Length of Visible Light 14h 17m
Length of Day
13h 10m
Waxing Crescent, 32% of the Moon is Illuminated
Apr 5
Waxing Crescent
Apr 7
First Quarter
Apr 15
Full
Apr 22
Last Quarter
Apr 29
New

Hourly Weather History & Observations

Time (CEST) Temp. Windchill Dew Point Humidity Pressure Visibility Wind Dir Wind Speed Gust Speed Precip Events Conditions
12:00 AM 49 °F - 42 °F 71% 29.92 in 25 mi SW 3.5 mph - -   Partly Cloudy
12:00 AM 48.2 °F - 42.8 °F 82% 29.92 in - SW 3.5 mph - N/A   Clear
1:00 AM 48 °F - 43 °F 76% 29.93 in 25 mi SSW 3.5 mph - -   Mostly Cloudy
1:00 AM 48.2 °F - 42.8 °F 82% 29.92 in - SSW 3.5 mph - N/A   Clear
2:00 AM 48 °F - 43 °F 78% 29.94 in 25 mi SW 2.3 mph - -   Mostly Cloudy
2:00 AM 48.2 °F - 42.8 °F 82% 29.92 in - SW 2.3 mph - N/A   Clear
2:30 AM 48.2 °F - 44.6 °F 87% 29.92 in 6.2 mi SW 4.6 mph - N/A   Unknown
3:00 AM 48 °F - 44 °F 81% 29.94 in 13 mi SW 3.5 mph - -   Clear
3:00 AM 48.2 °F - 44.6 °F 87% 29.92 in 6.2 mi SW 3.5 mph - N/A   Unknown
3:30 AM 48.2 °F - 44.6 °F 87% 29.92 in 6.2 mi SW 2.3 mph - N/A   Unknown
4:00 AM 47 °F - 44 °F 86% 29.95 in 10 mi SW 3.5 mph - -   Clear
4:00 AM 46.4 °F 45.2 °F 44.6 °F 93% 29.92 in 6.2 mi SW 3.5 mph - N/A   Unknown
4:30 AM 46.4 °F 45.2 °F 44.6 °F 93% 29.92 in 6.2 mi WSW 3.5 mph - N/A   Unknown
5:00 AM 46 °F - 44 °F 89% 29.95 in 9 mi WSW 4.6 mph - -   Clear
5:00 AM 46.4 °F 44.3 °F 44.6 °F 93% 29.95 in - WSW 4.6 mph - N/A   Clear
6:00 AM 46 °F - 44 °F 91% 29.96 in 5 mi SW 3.5 mph - -   Clear
6:00 AM 46.4 °F - 44.6 °F 93% 29.95 in 5.0 mi SW 2.3 mph - N/A   Unknown
6:30 AM 44.6 °F - 42.8 °F 93% 29.95 in 4.3 mi WSW 2.3 mph - N/A   Unknown
7:00 AM 45 °F - 44 °F 94% 29.97 in 4 mi SW 3.5 mph - -   Clear
7:00 AM 44.6 °F 43.1 °F 44.6 °F 100% 29.95 in 4.3 mi SW 3.5 mph - N/A   Unknown
7:30 AM 44.6 °F 43.1 °F 42.8 °F 93% 29.95 in 3.7 mi SW 3.5 mph - N/A   Unknown
8:00 AM 45 °F - 44 °F 93% 29.98 in 3 mi SW 3.5 mph - -   Partly Cloudy
8:00 AM 44.6 °F 43.1 °F 44.6 °F 100% 29.98 in 3.1 mi SW 3.5 mph - N/A   Unknown
8:30 AM 44.6 °F - 44.6 °F 100% 29.98 in 4.3 mi SW 2.3 mph - N/A   Unknown
9:00 AM 45 °F - 44 °F 94% 30.00 in 4 mi WSW 1.2 mph - -   Clear
9:00 AM 44.6 °F - 44.6 °F 100% 29.98 in 4.3 mi WSW 1.2 mph - N/A   Unknown
9:30 AM 46.4 °F 45.2 °F 46.4 °F 100% 29.98 in 5.0 mi SW 3.5 mph - N/A   Unknown
10:00 AM 50 °F - 45 °F 78% 30.01 in 12 mi WSW 5.8 mph - -   Clear
10:00 AM 50.0 °F - 44.6 °F 82% 30.01 in - WSW 5.8 mph - N/A   Clear
10:30 AM 51.8 °F - 44.6 °F 76% 30.01 in - West 6.9 mph - N/A   Clear
11:00 AM 54 °F - 44 °F 61% 30.02 in 25 mi West 4.6 mph - -   Scattered Clouds
11:00 AM 53.6 °F - 44.6 °F 72% 30.01 in 6.2 mi West 5.8 mph - N/A   Partly Cloudy
11:30 AM 57.2 °F - 42.8 °F 59% 30.01 in 6.2 mi Variable 3.5 mph - N/A   Partly Cloudy
12:00 PM 58 °F - 41 °F 43% 30.03 in 37 mi SSW 2.3 mph - -   Scattered Clouds
12:00 PM 59.0 °F - 41.0 °F 51% 30.01 in 6.2 mi Variable 1.2 mph - N/A   Partly Cloudy
12:30 PM 59.0 °F - 41.0 °F 51% 30.01 in 6.2 mi WNW 3.5 mph - N/A   Partly Cloudy
1:00 PM 60 °F - 41 °F 38% 30.02 in 37 mi West 4.6 mph - -   Scattered Clouds
1:00 PM 60.8 °F - 41.0 °F 48% 30.01 in 6.2 mi West 4.6 mph - N/A   Partly Cloudy
1:30 PM 60.8 °F - 42.8 °F 52% 30.01 in 6.2 mi SW 5.8 mph - N/A   Scattered Clouds
2:00 PM 63 °F - 42 °F 34% 30.02 in 37 mi SW 9.2 mph - -   Partly Cloudy
2:00 PM 62.6 °F - 41.0 °F 45% 30.01 in 6.2 mi SW 8.1 mph - N/A   Scattered Clouds
2:30 PM 64.4 °F - 42.8 °F 45% 30.01 in 6.2 mi South 8.1 mph - N/A   Scattered Clouds
3:00 PM 64 °F - 40 °F 30% 30.01 in 25 mi SSW 8.1 mph - -   Partly Cloudy
3:00 PM 64.4 °F - 41.0 °F 42% 30.01 in 6.2 mi SSW 8.1 mph - N/A   Scattered Clouds
3:30 PM 62.6 °F - 39.2 °F 42% 30.01 in 6.2 mi SW 8.1 mph - N/A   Scattered Clouds
4:00 PM 64 °F - 41 °F 32% 30.00 in 31 mi WSW 9.2 mph - -   Scattered Clouds
4:00 PM 64.4 °F - 41.0 °F 42% 29.98 in 6.2 mi WSW 9.2 mph - N/A   Partly Cloudy
4:30 PM 64.4 °F - 39.2 °F 40% 29.98 in - WSW 8.1 mph - N/A   Clear
5:00 PM 65 °F - 41 °F 30% 30.00 in 31 mi SW 8.1 mph - -   Scattered Clouds
5:00 PM 64.4 °F - 41.0 °F 42% 29.98 in - SW 8.1 mph - N/A   Clear
5:30 PM 66.2 °F - 41.0 °F 40% 29.98 in - SSW 6.9 mph - N/A   Clear
6:00 PM 65 °F - 39 °F 27% 30.00 in 31 mi SSW 9.2 mph - -   Scattered Clouds
6:00 PM 64.4 °F - 39.2 °F 40% 29.98 in - SSW 9.2 mph - N/A   Clear
6:30 PM 64.4 °F - 39.2 °F 40% 29.98 in - SW 9.2 mph - N/A   Clear
7:00 PM 64 °F - 40 °F 29% 30.01 in 31 mi WSW 10.4 mph - -   Scattered Clouds
7:00 PM 64.4 °F - 39.2 °F 40% 30.01 in - WSW 10.4 mph - N/A   Clear
7:30 PM 62.6 °F - 39.2 °F 42% 30.01 in - SW 11.5 mph - N/A   Clear
8:00 PM 61 °F - 39 °F 33% 30.01 in 28 mi SSW 8.1 mph - -   Clear
8:00 PM 60.8 °F - 39.2 °F 45% 30.01 in - SSW 8.1 mph - N/A   Clear
8:30 PM 59.0 °F - 39.2 °F 48% 30.01 in - SW 4.6 mph - N/A   Clear
9:00 PM 60 °F - 40 °F 36% 30.02 in 31 mi SSW 3.5 mph - -   Mostly Cloudy
9:00 PM 59.0 °F - 39.2 °F 48% 30.01 in 6.2 mi SSW 3.5 mph - N/A   Scattered Clouds
9:30 PM 59.0 °F - 42.8 °F 55% 30.04 in 6.2 mi WSW 5.8 mph - N/A   Mostly Cloudy
10:00 PM 59 °F - 43 °F 43% 30.04 in 34 mi West 3.5 mph - -   Clear
10:00 PM 59.0 °F - 42.8 °F 55% 30.04 in - West 3.5 mph - N/A   Clear
10:30 PM 59.0 °F - 42.8 °F 55% 30.04 in - West 4.6 mph - N/A   Clear
11:00 PM 59 °F - 44 °F 47% 30.04 in 31 mi SSW 1.2 mph - -   Mostly Cloudy
11:00 PM 59.0 °F - 44.6 °F 59% 30.04 in - SSW 1.2 mph - N/A   Clear